sat.trackr.live / text

‹ back to catalog

STARLINK-35291

NORAD 66083 · 2025-235AB

PAYLOAD ACTIVE UNKNOWN

§ Identity

Operator
Country
US
Launch date
2025-10-19
Launch site
AFETR
Launch vehicle
Mass (kg)
RCS (m²)

Purposes: comms

External: N2YO · Heavens-Above · Gunter

§ Orbital elements

Epoch: 2026-05-25T00:33:26.258976Z

Period
94.11 min
Inclination
53.1601°
Eccentricity
0.0001675
Mean motion
15.30204181 rev/d
Perigee alt
474.1 km
Apogee alt
476.4 km
Semi-major
6,853.3 km
B*
7.2554e-4
RAAN
251.0437°
Arg perigee
91.6240°
Mean anomaly
268.4953°
Rev number
3,457

§ Raw data

STARLINK-352911 66083U 25235AB  26145.02322059  .00021193  00000+0  72554-3 0  99922 66083  53.1601 251.0437 0001675  91.6240 268.4953 15.30204181 34575

JSON: /api/v1/satellites/66083 · /tle

For live sub-satellite position, see the globe view (requires WebGL).

§ Visibility from observer

Set your observer location to see the next 7 days of passes ≥ 10°. The values pass through the URL so the page stays shareable.

No JS? Fill the form by hand. The geolocation button needs JavaScript.